星链-37359(STARLINK-37359)

导读

STARLINK-37359(NORAD编号69188)是美国太空探索技术公司(SpaceX)星链(Starlink)星座的卫星之一,属于低轨通信卫星,旨在为全球提供覆盖广泛的卫星宽带互联网服务。星链星座计划部署数万颗低轨卫星,依托低轨道优势可实现低延迟通信,支持地面终端甚至手机直连卫星上网,满足偏远地区网络覆盖、移动场景通信等需求。该卫星随猎鹰9号火箭发射入轨,融入已初步组网的星链低轨网络,推动全球无缝卫星通信覆盖的实现,同时其批量发射也引发了关于空间安全和轨道资源利用的讨论。

Basic Information
目录编号:
69188
目录名称:
STARLINK-37359
国际标识:
2026-114G
轨道中心:
EARTH
卫星名称:
星链-37359
卫星全名:
星链-37359(STARLINK-37359)
卫星状态:
在轨 (已飞行102 天)
发射日期:
2026-05-25 UTC
国别 :
美国 (US)
星等 :
--
Orbit Information
数据来源 国际轨道数据
星历时间: 2026-09-02T12:45:52+0800
1天前
查看轨道信息
半长轴: 6840.846km
偏心率: 0.0001044
轨道倾角: 53.158°
近地点辐角 70.130°
升交点赤经 199.484°
平近点角 289.981°
近地点: 461.994km
远地点: 463.424km
周期: 93.848分钟
每日圈数: 15.343982
Detailed Information
固有亮度:
5
最大亮度:
2.5
卫星平台:
Starlink V1.0
覆盖范围:
全球
运营商:
太空探索技术公司
运营商所在国:
美国
制造商(研发单位):
太空探索技术公司
制造商所在国:
美国
使用方式:
暂无
Satellite Introduction
Starlink 计划是 SpaceX 推出的全球卫星互联网项目,通过发射低轨道卫星,为全球尤其是偏远地区提供高速、低延迟的互联网服务。自 2019 年起,Starlink 已部署数千颗卫星,旨在缩小全球数字鸿沟,推动互联网普及。该项目还为军事、航空等行业提供通信支持,带来广泛经济效益。
2D Orbit Map
3D Orbit Map
Orbit Altitude Analysis Chart
Orbit Inclination Analysis Chart
Orbit Comprehensive Analysis Chart
View Comprehensive Chart
Conjunction Data List
Event ID Objects TCA Miss Dist (km) Collision Risk Probability Collision Risk Index (CRI) Action
CDM_260905-041606-031706-918821
2026-09-05T
04:16:29+0000
0.506 km
远距离
3.393192E-5 中风险 0.66
CDM_260905-050306-031706-918821
2026-09-05T
05:03:23+0000
0.697 km
远距离
1.230036E-5 中风险 0.57
CDM_260903-190305-229406-918821
2026-09-03T
19:03:16+0000
2.593 km
极远距离
1.472636E-6 低风险 0.38
CDM_260904-232105-811206-918821
2026-09-04T
23:21:12+0000
2.912 km
极远距离
1.187217E-6 低风险 0.36